Content
SEND FEEDBACK

Daily
Averages
Monthly
Summary
United States of America

STANLEY, KENTUCKY


Home > North America > United States > Kentucky
Elevation: 122 meters     Latitude: 37 46N     Longitude: 087 09W

WEATHER
 
SELECT A DAY
Number of Records: 149,888;   Date Range: 1/1/95 - 7/26/14
 
SHARE

PRINT THIS DATA

[ ← Previous Day ]
WEATHER ALMANAC - 13 FEBRUARY, 2013
[ Next Day → ]
[ °F ]   °C
Weather ElementAverageHighLow
Temperature3.2 °C6.6 °C (3:56 pm)1 °C (9:17 am)
Dewpoint0.8 °C2 °C (2:44 pm)-0.5 °C (5:56 am)
Humidity85.1 %100 % (9:17 am)68 % (1:56 am)
Barometer1012.5 hPa1014.6 hPa (9:56 pm)1009.8 hPa (3:56 am)
Wind Speed12.1 km/h14.8 km/h (7:56 am)
Weather ElementAverage
Visibility11.7 km
Wind DirectionSW (220.3 °)

Weather ElementTotal
Precipitation2.29 mm
Heating Degree Days14.6 (Base 18.3)
Averaged from 30 records on 13 February, 2013
WEATHER CONDITIONS BREAKOUT
WIND DIRECTION BREAKOUT
WEATHER BY HOUR - 13 FEBRUARY, 2013
[ °F ]   °C
Local TimeTemperatureDewpointHumidityBarometerVisibilityWind DirectionWind SpeedGust SpeedPrecipitationEventsConditions
1:56 AM5.5 °C0 °C68 %1010.8 hPa16.1 kmNNE (30°)13 km/hPartly Cloudy
2:56 AM5 °C0 °C70 %1010.5 hPa16.1 kmNNE (30°)9.3 km/hMostly Cloudy
3:56 AM5 °C0 °C70 %1009.8 hPa16.1 kmNNE (30°)5.6 km/hScattered Clouds
4:56 AM4.4 °C0 °C73 %1010.5 hPa16.1 kmNNW (330°)13 km/hMostly Cloudy
5:56 AM4.4 °C-0.5 °C71 %1010.5 hPa16.1 kmNorth (360°)13 km/hOvercast
6:56 AM3.8 °C0 °C76 %1010.8 hPa16.1 kmNorth (10°)11.1 km/hMostly Cloudy
7:56 AM2.7 °C0 °C83 %1011.9 hPa4.8 kmNorth (350°)14.8 km/h0 mmSnowLight Snow
8:09 AM2 °C1 °C93 %1011.9 hPa4 kmNNW (340°)13 km/h0 mmSnowLight Snow
8:24 AM2 °C1 °C93 %1011.9 hPa2.9 kmNorth (350°)11.1 km/h0 mmSnowLight Snow
8:56 AM1.1 °C0.5 °C96 %1012.2 hPa1.3 kmNorth (10°)9.3 km/h0.25 mmSnowLight Snow
9:17 AM1 °C1 °C100 %1012.2 hPa0.8 kmNorth (10°)7.4 km/h0.25 mmFog-SnowLight Snow
9:42 AM1 °C1 °C100 %1012.5 hPa1.3 kmNorth (360°)9.3 km/h0.76 mmSnowLight Snow
9:56 AM1.1 °C0.5 °C96 %1012.9 hPa1.9 kmNorth (350°)11.1 km/h0.76 mmSnowLight Snow
10:56 AM2.2 °C1.1 °C93 %1013.2 hPa3.2 kmNNW (340°)13 km/h0.25 mmSnowLight Snow
11:17 AM2 °C1 °C93 %1012.9 hPa8 kmNNW (330°)14.8 km/h0 mmSnowLight Snow
11:56 AM2.7 °C1.6 °C93 %1012.9 hPa8 kmWNW (300°)11.1 km/h0 mmRainLight Rain
12:21 PM3 °C1 °C87 %1012.5 hPa11.3 kmNW (320°)13 km/h0 mmOvercast
12:56 PM3.8 °C1.1 °C83 %1012.2 hPa16.1 kmWSW (240°)9.3 km/h0 mmOvercast
1:56 PM4.4 °C1.6 °C82 %1012.2 hPa16.1 kmWest (260°)11.1 km/hOvercast
2:44 PM6 °C2 °C76 %1011.9 hPa16.1 kmWest (260°)11.1 km/hMostly Cloudy
2:56 PM6.1 °C1.6 °C73 %1012.5 hPa16.1 kmWest (280°)14.8 km/hMostly Cloudy
3:56 PM6.6 °C1.6 °C71 %1012.5 hPa16.1 kmSW (230°)14.8 km/hMostly Cloudy
4:56 PM5.5 °C1.6 °C76 %1012.5 hPa16.1 kmSSW (200°)11.1 km/hPartly Cloudy
5:56 PM3.3 °C1.6 °C89 %1012.9 hPa16.1 kmSouth (180°)13 km/hPartly Cloudy
6:56 PM2.7 °C1.1 °C89 %1013.5 hPa16.1 kmSouth (180°)13 km/hPartly Cloudy
7:56 PM2.2 °C1.1 °C93 %1013.9 hPa16.1 kmSouth (180°)13 km/hClear
8:56 PM1.6 °C0.5 °C92 %1014.2 hPa16.1 kmSouth (190°)13 km/hClear
9:56 PM2.2 °C0.5 °C89 %1014.6 hPa16.1 kmSSW (200°)13 km/hClear
10:56 PM1.6 °C0.5 °C92 %1014.6 hPa16.1 kmSouth (180°)14.8 km/hClear
11:56 PM1.6 °C0.5 °C92 %1014.6 hPa14.5 kmSouth (180°)14.8 km/hClear
Hourly data recorded from KOWB, located 0 kilometers away from Stanley, Kentucky







STORIES FROM OUR PARTNERS